This is the latest recevied weather packets stored in our database for station/object YM2KV-13. If no packets are shown the sender has not sent any weather packets the latest 10 day(s).
| Time | Temp. | Humidity | Pressure | Rain* | Wind** | Luminosity | Snow |
|---|---|---|---|---|---|---|---|
| 1777819184 | 10.56° C | 76% | 1021.7 hPa | - | - | - | - |
| 1777818584 | 11.11° C | 75% | 1021.6 hPa | - | - | - | - |
| 1777817984 | 11.11° C | 74% | 1021.7 hPa | - | - | - | - |
| 1777817384 | 11.11° C | 72% | 1021.7 hPa | - | - | - | - |
| 1777816784 | 11.67° C | 71% | 1021.7 hPa | - | - | - | - |
| 1777816184 | 11.67° C | 71% | 1021.6 hPa | - | - | - | - |
| 1777815584 | 11.67° C | 70% | 1021.9 hPa | - | - | - | - |
| 1777814984 | 12.22° C | 69% | 1022.1 hPa | - | - | - | - |
| 1777814384 | 12.22° C | 69% | 1022.1 hPa | - | - | - | - |
| 1777813784 | 12.22° C | 68% | 1021.9 hPa | - | - | - | - |
| 1777813184 | 12.22° C | 67% | 1021.9 hPa | - | - | - | - |
| 1777812584 | 12.22° C | 69% | 1021.7 hPa | - | - | - | - |
| 1777811984 | 12.22° C | 69% | 1021.7 hPa | - | - | - | - |
| 1777811384 | 12.22° C | 70% | 1021.9 hPa | - | - | - | - |
| 1777810784 | 11.67° C | 69% | 1022.1 hPa | - | - | - | - |
| 1777810184 | 12.22° C | 68% | 1022.2 hPa | - | - | - | - |
| 1777809584 | 12.22° C | 69% | 1022.5 hPa | - | - | - | - |
| 1777808984 | 12.22° C | 70% | 1022.6 hPa | - | - | - | - |
| 1777808384 | 12.22° C | 69% | 1022.6 hPa | - | - | - | - |
| 1777807784 | 12.78° C | 65% | 1022.5 hPa | - | - | - | - |
| 1777807184 | 13.33° C | 64% | 1022.8 hPa | - | - | - | - |
| 1777806584 | 13.89° C | 61% | 1022.9 hPa | - | - | - | - |
| 1777805984 | 14.44° C | 60% | 1022.8 hPa | - | - | - | - |
| 1777805384 | 14.44° C | 59% | 1023 hPa | - | - | - | - |
| 1777804784 | 14.44° C | 60% | 1022.9 hPa | - | - | - | - |
* Rain since midnight (hover to see other rain measurements)
** Current wind speed in m/s (hover to see current wind gust speed)